Content
SEND FEEDBACK

Daily
Averages
Monthly
Summary
Brazil

TERESINA, PIAUI


Home > South America > Brazil > Piaui
Elevation: 99 meters     Latitude: 05 03S     Longitude: 042 48W

WEATHER
 
SELECT A DAY
Number of Records: 163,518;   Date Range: 6/30/96 - 7/9/14
 
SHARE

PRINT THIS DATA

[ ← Previous Day ]
WEATHER ALMANAC - 14 MARCH, 2013
[ Next Day → ]
[ °F ]   °C
Weather ElementAverageHighLow
Temperature30.6 °C35.6 °C (3:00 pm)27 °C (5:00 am)
Dewpoint24.5 °C26 °C (3:00 am)21 °C (5:00 pm)
Humidity70.6 %94 % (5:00 am)40 % (3:00 pm)
Barometer1008.5 hPa1011.5 hPa (9:00 am)1005.1 hPa (5:00 pm)
Wind Speed4.2 km/h11.1 km/h (1:00 pm)
Weather ElementAverage
Visibility11.7 km
Wind DirectionSSE (170.4 °)

Weather ElementTotal
Precipitation---
Cooling Degree Days12.9 (Base 18.3)
Growing Degree Days21.3 (Base 10)
Averaged from 27 records on 14 March, 2013
WEATHER CONDITIONS BREAKOUT
WIND DIRECTION BREAKOUT
WEATHER BY HOUR - 14 MARCH, 2013
[ °F ]   °C
Local TimeTemperatureDewpointHumidityBarometerVisibilityWind DirectionWind SpeedGust SpeedPrecipitationEventsConditions
1:00 AM28 °C25 °C84 %1009.1 hPa10 kmNorth (360°)7.4 km/hMostly Cloudy
2:00 AM28 °C25 °C84 %1008.1 hPa10 kmNNW (340°)7.4 km/hMostly Cloudy
3:00 AM27.8 °C25.6 °C85 %1008.5 hPa19.3 kmNorth (350°)5.6 km/hPartly Cloudy
3:00 AM28 °C26 °C89 %1008.1 hPa10 kmNorth (350°)5.6 km/hMostly Cloudy
4:00 AM28 °C26 °C89 %1008.1 hPa10 kmNNW (340°)5.6 km/hMostly Cloudy
5:00 AM27 °C26 °C94 %1009.1 hPa10 kmNorth (350°)5.6 km/hMostly Cloudy
6:00 AM27 °C26 °C94 %1009.1 hPa10 kmCalmScattered Clouds
7:00 AM28 °C26 °C89 %1010.2 hPa10 kmCalmMostly Cloudy
8:00 AM28 °C26 °C89 %1011.2 hPa10 kmCalmMostly Cloudy
9:00 AM29.4 °C24.4 °C69 %1011.5 hPa19.3 kmEast (100°)3.7 km/hMostly Cloudy
9:00 AM30 °C25 °C74 %1011.2 hPa10 kmEast (100°)3.7 km/hMostly Cloudy
10:00 AM32 °C25 °C66 %1011.2 hPa10 kmENE (60°)3.7 km/hMostly Cloudy
11:00 AM33 °C24 °C59 %1010.2 hPa10 kmEast (90°)5.6 km/hMostly Cloudy
12:00 PM33 °C25 °C63 %1010.2 hPa10 kmESE (120°)7.4 km/hMostly Cloudy
1:00 PM34 °C24 °C56 %1009.1 hPa10 kmSouth (190°)11.1 km/hMostly Cloudy
2:00 PM35 °C24 °C53 %1008.1 hPa10 kmSE (130°)5.6 km/hScattered Clouds
3:00 PM35.6 °C23.3 °C40 %1006.8 hPa19.3 kmSSE (150°)3.7 km/hPartly Cloudy
3:00 PM35 °C24 °C53 %1007.1 hPa10 kmSSE (150°)3.7 km/hScattered Clouds
4:00 PM34 °C24 °C56 %1006.1 hPa10 kmSouth (190°)7.4 km/hScattered Clouds
5:00 PM35 °C21 °C44 %1005.1 hPa10 kmESE (120°)3.7 km/hScattered Clouds
6:00 PM33 °C23 °C55 %1005.1 hPa10 kmSW (220°)3.7 km/hScattered Clouds
7:00 PM32 °C23 °C59 %1006.1 hPaCalmClear
8:00 PM30 °C24 °C70 %1006.1 hPaCalmClear
9:00 PM29.4 °C23.9 °C66 %1007.1 hPa19.3 kmCalm
9:00 PM29 °C24 °C74 %1007.1 hPaCalmClear
10:00 PM29 °C24 °C74 %1009.1 hPaNorth (360°)7.4 km/hClear
11:00 PM28 °C24 °C79 %1009.1 hPaNorth (360°)5.6 km/hClear
Hourly data recorded from SBTE, located 0 kilometers away from Teresina, Piaui







STORIES FROM OUR PARTNERS